Location: La Oliva
(42.2466°N, 2.9955°E)
Time: 07:28:10
(UTC+00:00)

Meteor 2-8 Rocket - Pass Details

Date: 22 April 2021
Orbit: 936 x 959 km, 82.5° (Epoch: 07 May)

Event Time Altitude Azimuth Distance (km) Brightness Sun altitude
Exits shadow 21:02:56 37° 184° (S) 1,433 5.0 -23.6°
Maximum altitude 21:05:32 87° 97° (E) 960 4.3 -24.0°
Drops below altitude 10° 21:11:41 10° 9° (N) 2,680 7.3 -24.7°
Sets 21:14:11 0° 9° (N) 3,626 8.0 -25.1°
